www.pogodaiklimat.ru

Погода и климат >> Архив погоды >> Россия >> Краснодарский край >> Новороссийск


АРХИВ ПОГОДЫ в Новороссийске

Время (UTC), дата Ветер
(напр.,м/с)
 
Видим.   Явления Облачность Т
(С)
Тd
(С)
f
(%)
Тe
(С)
Тes
(С)
Комфортность P
(гПа)
Po
(гПа)
Тmin
(С)
Tmax
(С)
R
(мм)
R24
(мм)
S
(см)
15 15.02 ЮВ 2 20 км 8/8 300 м
[Sc]
+9.7 +7.0 83 +8 +8 тепло 1023.1 1021.8 +12.0 0.6
18 15.02 СВ 1 н/о н/о +8.0 +5.8 86 +7 +7 тепло 1023.9 1022.5
21 15.02 СВ 1 10 км ясно +6.0 +3.4 83 +5 +5 тепло 1024.3 1023.9
00 16.02 штиль 0 10 км ясно +5.7 +3.6 86 +5 +5 тепло 1023.8 1023.4
03 16.02 СВ 8-12
{12}
10 км ясно +11.1 +2.6 56 +8 +8 тепло 1022.9 1021.6 +5.6
06 16.02 СВ 8-12
{14}
20 км 8/0
[Ac trans Ci fib]
+11.0 +2.4 55 +8 +8 тепло 1023.1 1021.8
09 16.02 СВ 6-11
{14}
20 км 9/0
[Ac trans Ci fib]
+15.2 +1.2 39 +14 +16 тепло 1022.8 1021.5
12 16.02 СВ 6-12
{13}
20 км 8/3 600 м
[Sc Ci fib]
+14.3 -0.5 36 +13 +14 тепло 1021.8 1020.5
15 16.02 В 9-15
{15}
20 км 9/5 600 м
[Sc Ac trans Ci fib]
+9.5 +2.8 63 +5 +5 тепло 1021.7 1020.3 +15.8
18 16.02 СВ 9-14
{17}
10 км 8/0
[Ci fib]
+8.9 +2.0 62 +5 +5 тепло 1021.7 1020.3
21 16.02 СВ 11-16
{18}
10 км ясно +8.6 +2.5 65 +4 +4 тепло 1020.6 1019.2
00 17.02 СВ 9-14
{18}
10 км 8/0
[Ci fib]
+9.6 +1.5 57 +6 +6 тепло 1019.7 1018.4
03 17.02 СВ 8-12
{16}
10 км ясно +11.9 -5.8 28 +9 +9 тепло 1018.8 1017.5 +8.3
06 17.02 В 3
{13}
20 км 9/6 600 м
[Sc Ac trans Cc]
+11.3 -5.1 31 +10 +10 тепло 1019.4 1018.1
09 17.02 ЮЗ 1 20 км 8/4 600 м
[Sc Ac trans Cc]
+12.0 +2.2 51 +12 +15 тепло 1019.3 1017.9
12 17.02 Ю 1 20 км 6/3 600 м
[Sc Ac trans Cc]
+12.0 +2.2 51 +12 +15 тепло 1018.1 1016.8
15 17.02 СВ 2 20 км 5/0
[Ac trans Cc]
+11.1 +2.3 55 +10 +10 тепло 1018.2 1016.9 +15.1
18 17.02 СВ 3 10 км 6/0
[Ac trans Cc]
+8.4 +2.3 65 +6 +6 тепло 1019.2 1017.8
21 17.02 штиль 0 10 км 8/6 600 м
[Sc Ac trans]
+7.2 +3.6 78 +6 +6 тепло 1019.0 1017.6
00 18.02 СВ 2 10 км 9/8 600 м
[Sc Ac trans]
+5.6 +2.1 78 +3 +3 тепло 1019.3 1017.9
03 18.02 СВ 3
{11}
10 км 8/5 600 м
[Sc Ac trans]
+3.7 +0.4 79 0 0 по сезону 1019.5 1018.1 +3.7
06 18.02 СВ 5-11
{13}
20 км 8/5 600 м
[Sc Ac trans]
+3.1 -0.1 79 -2 -2 по сезону 1020.2 1018.8 +2.8
09 18.02 СВ 4-12
{13}
20 км 9/4 600 м
[Sc Ac As]
+4.3 0.0 74 0 +1 по сезону 1020.4 1019.0
12 18.02 СВ 7-14
{15}
н/о н/о +4.7 -1.2 66 -1 -1 по сезону 1020.0 1018.6
15 18.02 СВ 5-12
{14}
20 км 3/3 600 м
[Sc]
+3.0 -1.4 73 -2 -2 по сезону 1020.8 1019.4 +5.1
18 18.02 СВ 6-12
{15}
10 км 3/3 600 м
[Sc]
+2.6 -1.7 73 -3 -3 по сезону 1021.0 1019.6
21 18.02 СВ 5-12
{13}
10 км ясно +2.4 -2.1 72 -3 -3 по сезону 1021.0 1019.6
00 19.02 СВ 5-10
{12}
10 км ясно +2.2 -2.3 72 -3 -3 по сезону 1020.6 1019.2
03 19.02 В 4 10 км 3/3 600 м
[Sc]
+2.0 -2.6 72 -3 -3 по сезону 1020.3 1018.9 +1.9
06 19.02 СВ 5-11
{11}
4000 м мгла 10/3 300 м
[St Cs]
+2.8 -2.4 69 -2 -2 по сезону 1021.0 1019.6
09 19.02 СВ 7-12
{13}
10 км 10/3 600 м
[St Ac trans Cs]
+3.9 -2.3 64 -2 -1 по сезону 1021.3 1019.9
12 19.02 СВ 7-12
{13}
10 км 9/3 600 м
[Sc Ac und]
+5.1 -2.3 59 0 0 по сезону 1020.9 1019.5
15 19.02 СВ 8-12
{12}
10 км 10/3 600 м
[Sc Cc]
+3.8 -2.4 64 -2 -2 по сезону 1021.6 1020.2 +5.3
18 19.02 В 7-12
{13}
10 км 10/3 600 м
[Sc Cc]
+3.3 -2.7 65 -2 -2 по сезону 1021.2 1019.9
21 19.02 СВ 8-12
{14}
10 км ясно +2.8 -2.9 66 -3 -3 по сезону 1020.3 1018.9
00 20.02 СВ 10-15
{17}
10 км 10/3 600 м
[Sc Cc]
+2.7 -2.8 67 -4 -4 по сезону 1019.8 1018.4
03 20.02 СВ 10-17
{17}
н/о н/о +2.4 -3.1 67 -5 -5 по сезону 1019.0 1017.6 +2.4
06 20.02 СВ 13-20
{20}
20 км 9/3 600 м
[Sc Cc]
+2.4 -4.0 63 -5 -5 прохладно 1019.4 1018.0 +2.2
09 20.02 СВ 12-20
{23}
20 км 9/3 600 м
[Sc Ac trans Cc]
+3.7 -3.1 61 -3 -3 прохладно 1019.2 1017.8
12 20.02 СВ 10-17
{20}
20 км 8/3 600 м
[Sc Ac trans Cc]
+4.4 -3.4 57 -2 -2 прохладно 1018.9 1017.5
15 20.02 СВ 9-15
{17}
20 км 9/4 600 м
[Sc Ac trans Cc]
+3.8 -4.0 57 -2 -2 по сезону 1018.9 1017.5 +4.5
18 20.02 СВ 13-21
{22}
10 км 6/3 600 м
[Sc Ci fib]
+3.3 -3.9 59 -4 -4 прохладно 1019.0 1017.6
21 20.02 СВ 11-18
{21}
10 км 3/0
[Ci fib]
+2.7 -2.7 68 -5 -5 прохладно 1018.6 1017.2
00 21.02 СВ 10-18
{18}
10 км 8/0
[Ci fib]
+2.3 -2.4 71 -5 -5 по сезону 1018.1 1016.7
03 21.02 СВ 10-18
{19}
10 км 3/0
[Ci fib]
+1.4 -2.3 76 -6 -6 прохладно 1017.7 1016.3 +1.4
06 21.02 СВ 10-18
{20}
20 км 4/3 600 м
[Sc Ac trans]
+2.1 -2.2 73 -5 -5 прохладно 1017.5 1016.1 +1.2
09 21.02 СВ 10-17
{18}
20 км 3/3 600 м
[Sc]
+4.6 -1.9 63 -2 -1 по сезону 1017.4 1016.0
12 21.02 СВ 8-13
{17}
20 км 3/3 600 м
[Sc]
+5.5 -0.9 63 0 +1 по сезону 1016.6 1015.2
15 21.02 СВ 7-14
{15}
20 км 4/3 600 м
[Sc Ci fib]
+4.8 -0.8 67 -0 -0 по сезону 1016.1 1014.7 +5.7
18 21.02 СВ 8-14
{16}
10 км 3/3 600 м
[Sc]
+3.9 -0.6 72 -2 -2 по сезону 1016.0 1014.6
21 21.02 СВ 7-13
{16}
10 км ясно +3.5 -0.5 75 -2 -2 по сезону 1015.6 1014.2
00 22.02 СВ 6-12
{13}
10 км ясно +3.1 -0.4 78 -3 -3 по сезону 1015.2 1013.8
03 22.02 СВ 8-14
{15}
10 км 3/3 600 м
[Sc]
+3.1 -0.4 78 -3 -3 по сезону 1014.0 1012.7 +2.5
06 22.02 В 6-12
{18}
20 км 5/0
[Ci ing]
+4.1 -0.8 70 -1 -0 по сезону 1014.2 1012.8 +2.4
09 22.02 СВ 6-12
{14}
20 км 3/1 1000 м
[Cu hum Ci sp]
+6.1 +0.2 66 +2 +4 по сезону 1014.8 1013.4

 

Местоположение метеостанции Новороссийск (Краснодарский край, Россия): широта 44.72 долгота 37.85 высота над уровнем моря 3 м.

В архиве по умолчанию представлена погода в Новороссийске за последнюю неделю. Архивные данные за месяц целиком и за предыдущие месяцы, начиная с января 2011 года, Вы можете получить, выбрав интересующий диапазон дат из раскрывающегося списка и нажав кнопку "Ввод!".

Внимание! Время в таблицах - всемирное. Для получения местного времени необходимо прибавить поправку, которая в Новороссийске равна 3 ч.

Смотрите также архив погоды в соседних городах и на ближайших метеорологических станциях:

Погода в Геленджике (Краснодарский край, Россия) (25 км)
Погода в Крымске (Краснодарский край, Россия) (25 км)
Погода в Анапе (Краснодарский край, Россия) (48 км)
Погода в Славянске-на-Кубани (Краснодарский край, Россия) (66 км)
Погода в Темрюке (Краснодарский край, Россия) (76 км)
Погода в Джубге (Краснодарский край, Россия) (81 км)
Погода в Горячем Ключе (Краснодарский край, Россия) (99 км)
Погода в Краснодаре (Краснодарский край, Россия) (100 км)
Погода в Тамани (Краснодарский край, Россия) (105 км)
Погода в Туапсе (Краснодарский край, Россия) (119 км)

Пояснения к столбцам:

Ветер - указаны скорость ветра в м/с - средняя за 10 мин, порывы в срок и между сроками (в фигурных скобках) и направление, откуда дует ветер: С - северный, СВ - северо-восточный, В - восточный, ЮВ - юго-восточный, Ю - южный, ЮЗ - юго-западный, З - западный, СЗ - северо-западный.
Видимость - горизонтальная дальность видимости в метрах или километрах. При видимости от 1 до 10 км при отсутствии осадков обычно наблюдается дымка, при ухудшении видимости до 1 км и менее - туман. В сухую погоду видимость может ухудшаться дымом, пылью или мглою.
Явления - указаны атмосферные явления, наблюдавшиеся в срок или в последний час перед сроком; фигурными скобками обозначены явления, наблюдавшиеся между сроками (за 1-3 часа до срока); квадратными скобками обозначены град или гололедные отложения с указанием их диаметра в мм.
Облачность - указаны через наклонную черту общая и нижняя облачность в баллах и высота нижней границы облаков в метрах; квадратными скобками обозначены формы облаков: Ci - перистые, Cs - перисто-слоистые, Cc - перисто-кучевые, Ac - высококучевые, As - высокослоистые, Sc - слоисто-кучевые, Ns - слоисто-дождевые, Cu - кучевые, Cb - кучево-дождевые. Подробнее классификацию облаков см. в Атласе облаков (PDF).
T - Температура воздуха - температура, измеренная на высоте 2 м над землей.
Td - Температура точки росы - температура, при понижении до которой содержащийся в воздухе водяной пар достигнет насыщения.
f - Относительная влажность воздуха - влажноcть воздуха, измеренная на высоте 2 м над землей.
Te - Эффективная температура - температура, которую ощущает одетый по сезону человек в тени. Характеристика душности погоды. При расчете учитывается влияние влажности воздуха и скорости ветра на теплоощущения человека.
Tes - Эффективная температура на солнце - температура, которую ощущает человек, с поправкой на солнечный нагрев. Характеристика знойности погоды. Зависит от высоты солнца над горизонтом, облачности и скорости ветра. Ночью, в пасмурную погоду, а также при ветре 12 м/с и более поправка равна нулю.
P - Атмосферное давление - приведенное к уровню моря атмосферное давление.
Po - Атмосферное давление - измеренное на уровне метеостанции атмосферное давление.
Tmin - Минимальная температура - минимум температуры воздуха на высоте 2 м над землей.
Tmax - Максимальная температура - максимум температуры воздуха на высоте 2 м над землей.
R - Количество осадков - Количество выпавших осадков за период времени, мм. При наведении курсора мыши на число - период времени, за который выпало указанное количество осадков.
R24 - Количество осадков - Количество выпавших осадков за 24 часа, мм.
S - Снежный покров - Высота снежного покрова, см. При наведении курсора мыши на число - состояние снежного покрова и степень покрытия местности в баллах.